Location: ????????
(60.4333°N, 46.4710°E)
Time: 04:25:41
(UTC+00:00)

Cosmos 1814 Rocket - Pass Details

Date: 25 November 2020
Orbit: 745 x 786 km, 74.1° (Epoch: 19 January)

Event Time Altitude Azimuth Distance (km) Brightness Sun altitude
Rises 14:01:48 0° 201° (SSW) 3,265 7.9 -13.4°
Reaches altitude 10° 14:04:12 10° 199° (SSW) 2,336 7.0 -13.7°
Maximum altitude 14:09:28 69° 117° (ESE) 832 4.0 -14.3°
Enters shadow 14:13:45 16° 37° (NE) 1,960 5.6 -14.8°
